Regional Weather Roundup
Issued by NWS

Home | Current Version | Previous Version | Graphics & Text | Print | Product List | Glossary On
Versions: 1 2 3 4 5 6 7 8 9 10 11 12 13 14 15 16 17 18 19 20 21 22 23 24 25 26 27 28 29 30 31 32 33 34 35 36 37 38 39 40 41 42 43 44 45 46 47 48 49 50
000
ASUS43 KIND 230409
RWRIN

WEATHER ROUNDUP FOR INDIANA
NATIONAL WEATHER SERVICE INDIANAPOLIS IN
1200 AM EDT THU OCT 23 2014

NOTE: "FAIR" INDICATES FEW OR NO CLOUDS BELOW 12,000 FEET WITH NO
SIGNIFICANT WEATHER AND/OR OBSTRUCTIONS TO VISIBILITY.

* - STATION DOES NOT REPORT WEATHER SUCH AS PRECIPITATION OR FOG.

+ - STATION NOT QUALITY CONTROLLED BY THE NATIONAL WEATHER SERVICE.
    USE DATA WITH CAUTION...ESPECIALLY DEWPOINT AND RELATIVE
    HUMIDITY OBSERVATIONS.

INZ001>003-010>013-019-020-230500-
NORTHWEST INDIANA

CITY           SKY/WX    TMP DP  RH WIND       PRES   REMARKS
GARY /AIRPORT/ CLEAR     36  35  93 CALM      30.28S FOG
KNOX *+        CLEAR     34  33  93 CALM      30.28S
LA PORTE +     CLEAR     37  37 100 CALM      30.29S
MICHIGAN CITY+ CLEAR     36  36 100 CALM      30.29S FOG
MONTICELLO +   CLEAR     43  39  87 CALM      30.27S
RENSSELAER +   CLEAR     37  37 100 NE3       30.29R
VALPARAISO     CLEAR     37  35  92 NE5       30.29R

$$

LMZ046-743>745-230500-
SOUTHERN LAKE MICHIGAN

STATION/POSITION TIME  TEMP WIND        PRES
                       AIR  DIR/SP/G
                 (UTC) (F)  (DEG/KT/KT) (MB)
MICHIGAN CITY    0400   42  110/  8/ 10   N/A

$$

INZ004-005-014>016-021>024-230500-
NORTH CENTRAL INDIANA

CITY           SKY/WX    TMP DP  RH WIND       PRES   REMARKS
GOSHEN         CLEAR     37  35  92 CALM      30.29S FOG
LOGANSPORT +   CLEAR     36  34  93 E6        30.29S FOG
PERU/GRISSOM   CLEAR     41  41 100 E6        30.28S
ROCHESTER +    CLEAR     39  39 100 E3        30.29S FOG
SOUTH BEND     CLEAR     39  36  89 E6        30.30S
WARSAW +       CLEAR     34  34 100 CALM      30.29S FOG

$$

INZ006>009-017-018-025>027-230500-
NORTHEAST INDIANA

CITY           SKY/WX    TMP DP  RH WIND       PRES   REMARKS
ANGOLA *+      CLEAR     36  23  60 CALM      30.28F
AUBURN +       CLEAR     36  32  87 CALM      30.30R
FORT WAYNE     CLEAR     35  34  96 CALM      30.30S
HUNTINGTON +   CLEAR     37  37  98 CALM      30.29S

$$

INZ028-029-035-036-043>045-051>053-230500-
WEST CENTRAL INDIANA

CITY           SKY/WX    TMP DP  RH WIND       PRES   REMARKS
GREENCASTLE +  CLEAR     39  37  93 CALM      30.26F
LAFAYETTE      CLEAR     40  38  93 CALM      30.27S
TERRE HAUTE    CLEAR     39  36  89 CALM      30.26S

$$

INZ030>032-037>040-046>048-054>057-064-065-230500-
CENTRAL INDIANA

CITY           SKY/WX    TMP DP  RH WIND       PRES   REMARKS
CP ATTERBURY + CLEAR     36  34  93 CALM      30.28R
FRANKFORT +    CLEAR     40  40 100 E6        30.28F
INDIANAPOLIS   CLEAR     45  39  79 E8        30.25S
-EAGLE CREEK   CLEAR     43  40  89 NE3       30.26S
KOKOMO *+      CLEAR     37  36  93 E5        30.29S
MARION +       CLEAR     39  37  90 CALM      30.29S
MT COMFORT *+  CLEAR     39  36  87 CALM      30.28R
SHELBYVILLE    CLEAR     39  35  86 E5        30.27R
ZIONSVILLE +   CLEAR     41  37  84 CALM      30.28S FOG

$$

INZ033-034-041-042-049-050-058-059-230500-
EAST CENTRAL INDIANA

CITY           SKY/WX    TMP DP  RH WIND       PRES   REMARKS
MUNCIE         CLEAR     39  37  92 CALM      30.28R

$$

INZ060-061-067>069-081>083-085>088-230500-
SOUTHWEST INDIANA

CITY           SKY/WX    TMP DP  RH WIND       PRES   REMARKS
EVANSVILLE     CLEAR     45  41  86 CALM      30.25S
HUNTINGBURG *+ CLEAR     45  37  76 NE3       30.26R
WASHINGTON +   CLEAR     41  39  95 CALM      30.25S

$$

INZ062-063-066-070>080-084-089>092-230500-
SOUTH CENTRAL AND SOUTHEAST INDIANA

CITY           SKY/WX    TMP DP  RH WIND       PRES   REMARKS
BLOOMINGTON    CLEAR     39  37  92 CALM      30.26S
NORTH VERNON + CLEAR     43  43 100 CALM      30.27S

$$




USA.gov is the U.S. government's official web portal to all federal, state and local government web resources and services.